www.pogodaiklimat.ru

Погода и климат >> Архив погоды >> Россия >> Смоленская область >> Рославль


АРХИВ ПОГОДЫ в Рославле

Время (UTC), дата Ветер
(напр.,м/с)
 
Видим.   Явления Облачность Т
(С)
Тd
(С)
f
(%)
Тe
(С)
Тes
(С)
Комфортность P
(гПа)
Po
(гПа)
Тmin
(С)
Tmax
(С)
R
(мм)
R24
(мм)
S
(см)
09 12.05 ЮВ 2 20 км 8/8 1000 м
[Cu med, cong]
+19.6 +8.8 50 +21 +24 комфорт 1022.4 996.1
12 12.05 штиль 0 20 км 8/5 1000 м
[Cu med, cong Ac trans Cc]
+19.1 +9.2 53 +20 +25 тепло 1022.9 996.5
15 12.05 З 2 19 км в посл. час ливневой дождь {гроза} 9/6 1000 м
[Cu med, cong Ac cuf Ci ing]
+14.0 +11.5 85 +13 +14 по сезону 1024.2 997.4 0.8
18 12.05 штиль 0 15 км {гроза, ливн. осадки} 9/4 600 м
[Cu med, cong Ac trans Cs]
+13.4 +12.0 91 +13 +13 по сезону 1024.5 997.7 +20.6 0.8
21 12.05 штиль 0 1500 м дымка 8/0
[Ac trans Cs]
+10.5 +9.6 94 +10 +10 по сезону 1024.8 997.6
00 13.05 СЗ 1 3800 м дымка {туман} 4/0
[Cs]
+8.7 +7.9 95 +8 +8 по сезону 1025.1 997.8
03 13.05 штиль 0 8000 м дымка 6/3 600 м
[Cu med, cong Ac trans Ci fib]
+10.0 +9.2 95 +9 +10 по сезону 1024.8 997.6 +8.5
06 13.05 С 1 20 км 1/0
[Ac lent]
+17.6 +10.7 64 +19 +26 тепло 1024.0 997.5 +8.5
09 13.05 СВ 1 20 км 8/8 600 м
[Cu med, cong]
+22.1 +8.8 43 +23 +27 комфорт 1022.8 996.7
12 13.05 З 3 20 км 8/6 600 м
[Cu med, cong Ac cast]
+22.5 +9.3 43 +24 +27 комфорт 1022.0 996.0
15 13.05 СЗ 3-10
{10}
20 км 8/4 300 м
[Cu med, cong Ci fib]
+22.3 +8.6 41 +24 +25 комфорт 1020.5 994.5
18 13.05 С 1
{10}
17 км 9/0
[Ac cast Ci fib]
+17.6 +9.0 57 +19 +19 тепло 1020.8 994.4 +23.3
21 13.05 СЗ 1 15 км 10/0
[Ac trans Ci fib]
+13.9 +9.4 74 +14 +14 тепло 1021.0 994.3
00 14.05 штиль 0 25 км 10/0
[Ci fib]
+11.3 +8.9 85 +11 +11 тепло 1020.6 993.7
03 14.05 СЗ 1 20 км 10/0
[Ac lent Ci sp]
+10.1 +8.8 92 +10 +10 по сезону 1020.7 993.6 +10.0
06 14.05 СВ 2 20 км 9/0
[Cc]
+16.0 +10.4 69 +16 +22 тепло 1020.4 993.9 +10.0
09 14.05 С 4 20 км 9/1 600 м
[Cu med, cong Cs]
+20.4 +8.2 45 +22 +29 комфорт 1019.5 993.4
12 14.05 СВ 3 20 км 9/8 600 м
[Sc diur, vesp Ac As]
+20.8 +6.9 41 +22 +24 комфорт 1019.0 992.9
15 14.05 СЗ 3 20 км 10/10 800 м
[Sc diur, vesp]
+19.7 +8.2 47 +21 +21 комфорт 1018.0 991.8
18 14.05 ЮВ 2 20 км {ливн. осадки} 10/8 600 м
[Sc Ac und]
+17.1 +11.0 67 +17 +17 тепло 1019.0 992.6 +21.4 0.0
21 14.05 С 2 15 км слаб. дождь 10/10 300 м
[Frnb Ns]
+14.8 +11.5 81 +14 +14 тепло 1018.8 992.2
00 15.05 С 3 18 км {дождь} 9/3 300 м
[Sc Ac und]
+14.9 +9.6 71 +14 +14 тепло 1018.0 991.5
03 15.05 С 2 20 км 10/9 450 м
[Sc Ac As]
+14.1 +11.3 83 +14 +14 тепло 1018.2 991.6 +14.1 1
06 15.05 С 3 14 км слаб. дождь 10/6 360 м
[Sc Ac As]
+14.0 +12.3 89 +13 +14 по сезону 1018.3 991.6 +13.6 1
09 15.05 С 3 8000 м слаб. дождь 10/8 360 м
[Frnb Ac As]
+13.3 +12.5 95 +12 +13 по сезону 1019.1 992.4
12 15.05 С 3 17 км в посл. час дождь 10/10 360 м
[Sc]
+13.3 +12.6 96 +12 +12 прохладно 1019.6 992.9
15 15.05 СВ 3 19 км 10/10 400 м
[Sc]
+13.5 +12.0 91 +12 +12 по сезону 1020.1 993.4 18
18 15.05 СВ 3 13 км в посл. час морось 10/10 300 м
[Sc]
+12.8 +11.9 94 +11 +11 по сезону 1021.1 994.3 +14.0 19
21 15.05 С 2 15 км 10/10 400 м
[Sc]
+12.5 +11.6 94 +11 +11 по сезону 1021.4 994.5
00 16.05 С 2 25 км 10/0
[Ac As]
+12.3 +10.9 91 +11 +11 тепло 1021.7 994.8
03 16.05 СВ 1 20 км 8/0
[Ac trans Ci fib]
+12.4 +9.9 85 +12 +13 тепло 1022.0 995.1 +11.6 0.5
06 16.05 В 2 20 км 9/0
[Ac trans Ci fib]
+14.9 +9.3 69 +15 +20 тепло 1022.3 995.6 +11.6
09 16.05 С 3 20 км 8/5 600 м
[Cu med, cong Ac trans Ci fib]
+18.1 +10.2 60 +18 +23 тепло 1022.0 995.6
12 16.05 СВ 3 20 км 9/5 1000 м
[Cu med, cong Ac cast]
+19.7 +8.6 49 +21 +23 комфорт 1022.0 995.7
15 16.05 СВ 4 20 км 9/4 600 м
[Cu Sc Ac trans]
+19.7 +8.2 47 +21 +21 комфорт 1021.7 995.4
18 16.05 СВ 1 20 км 8/0
[Ac lent Ci sp]
+15.1 +6.3 56 +16 +16 тепло 1022.5 995.8 +20.3
21 16.05 СВ 1 17 км 9/0
[Ac trans]
+12.6 +3.6 54 +13 +13 тепло 1023.0 996.0
00 17.05 В 1 50 км 4/0
[Ac lent]
+9.9 +3.5 64 +10 +10 по сезону 1023.9 996.7
03 17.05 В 2 20 км 4/0
[Ac lent Ci sp]
+9.2 +3.1 66 +8 +8 по сезону 1023.7 996.4 +8.5
06 17.05 В 3 20 км 4/0
[Ac trans Cc]
+14.3 +4.8 53 +14 +19 тепло 1023.5 996.7 +8.5
09 17.05 В 3 20 км 4/0
[Ac lent Ci fib]
+19.0 +6.9 45 +20 +30 тепло 1022.6 996.3
12 17.05 ЮВ 3 20 км 9/1 600 м
[Cu hum Ac und Cc]
+20.6 +5.3 37 +22 +27 комфорт 1021.5 995.3
15 17.05 В 2 20 км 9/3 600 м
[Cu hum Ac trans Ci fib]
+20.2 +3.2 32 +21 +23 комфорт 1020.8 994.6
18 17.05 В 1 20 км 9/0
[Ac und Ci fib]
+16.6 +4.7 45 +18 +18 тепло 1020.8 994.3 +20.7
21 17.05 ЮВ 2 50 км 9/0
[Ac und]
+12.9 +5.8 62 +12 +12 по сезону 1021.4 994.5
00 18.05 В 1 50 км 8/0
[Ac und Ci fib]
+10.5 +5.3 70 +10 +10 по сезону 1021.6 994.5
03 18.05 В 1 20 км 3/0
[Ac trans]
+10.0 +6.1 77 +10 +10 по сезону 1021.9 994.7 +7.1
06 18.05 ЮВ 2 20 км 5/0
[Ac trans Cc]
+16.9 +6.5 50 +17 +23 тепло 1020.9 994.4 +7.1
09 18.05 ЮВ 3 20 км 4/0
[Ci fib]
+20.1 +3.4 33 +21 +32 комфорт 1020.0 993.8
12 18.05 В 2 20 км 3/0
[Ci fib]
+22.2 +3.2 29 +22 +34 комфорт 1018.1 992.2
15 18.05 В 2 20 км 3/0
[Ci fib]
+22.4 +2.8 28 +22 +26 комфорт 1016.4 990.5
18 18.05 Ю 1 20 км 5/0
[Cc]
+17.3 +5.5 46 +18 +18 тепло 1016.6 990.3 +22.7
21 18.05 штиль 0 50 км 5/0
[Ci fib]
+11.0 +7.5 79 +10 +10 по сезону 1017.6 990.6
00 19.05 штиль 0 50 км 5/0
[Cs]
+8.3 +6.5 88 +7 +7 по сезону 1017.7 990.5
03 19.05 СВ 1 18 км 8/0
[Ci]
+9.1 +8.1 93 +8 +9 по сезону 1018.3 991.2 +6.8

 

Местоположение метеостанции Рославль (Смоленская область, Россия): широта 53.93 долгота 32.83 высота над уровнем моря 219 м.

В архиве по умолчанию представлена погода в Рославле за последнюю неделю. Архивные данные за месяц целиком и за предыдущие месяцы, начиная с января 2011 года, Вы можете получить, выбрав интересующий диапазон дат из раскрывающегося списка и нажав кнопку "Ввод!".


*Определитесь, кто Вы:
робот инопланетянин человек

Внимание! Время в таблицах - всемирное. Для получения местного времени необходимо прибавить поправку, которая равна 3 ч.

Смотрите также архив погоды в соседних городах и на ближайших метеорологических станциях:

Погода в Починке (Смоленская область, Россия) (60 км)
Погода в Мстиславле (Могилевская область, Беларусь) (72 км)
Погода в Ельне (Смоленская область, Россия) (75 км)
Погода в Жуковке (Брянская область, Россия) (75 км)
Погода в Костюковичах (Могилевская область, Беларусь) (82 км)
Погода в Спас-Деменске (Калужская область, Россия) (95 км)
Погода в Смоленске (Смоленская область, Россия) (104 км)
Погода в Унече (Брянская область, Россия) (123 км)
Погода в Брянске (Брянская область, Россия) (124 км)
Погода в Жиздре (Калужская область, Россия) (126 км)

Пояснения к столбцам:

Ветер - указаны скорость ветра в м/с - средняя за 10 мин, порывы в срок и между сроками (в фигурных скобках) и направление, откуда дует ветер: С - северный, СВ - северо-восточный, В - восточный, ЮВ - юго-восточный, Ю - южный, ЮЗ - юго-западный, З - западный, СЗ - северо-западный.
Видимость - горизонтальная дальность видимости в метрах или километрах. При видимости от 1 до 10 км при отсутствии осадков обычно наблюдается дымка, при ухудшении видимости до 1 км и менее - туман. В сухую погоду видимость может ухудшаться дымом, пылью или мглою.
Явления - указаны атмосферные явления, наблюдавшиеся в срок или в последний час перед сроком; фигурными скобками обозначены явления, наблюдавшиеся между сроками (за 1-3 часа до срока); квадратными скобками обозначены град или гололедные отложения с указанием их диаметра в мм.
Облачность - указаны через наклонную черту общая и нижняя облачность в баллах и высота нижней границы облаков в метрах; квадратными скобками обозначены формы облаков: Ci - перистые, Cs - перисто-слоистые, Cc - перисто-кучевые, Ac - высококучевые, As - высокослоистые, Sc - слоисто-кучевые, Ns - слоисто-дождевые, Cu - кучевые, Cb - кучево-дождевые. Подробнее классификацию облаков см. в Атласе облаков (PDF).
T - Температура воздуха - температура, измеренная на высоте 2 м над землей.
Td - Температура точки росы - температура, при понижении до которой содержащийся в воздухе водяной пар достигнет насыщения.
f - Относительная влажность воздуха - влажноcть воздуха, измеренная на высоте 2 м над землей.
Te - Эффективная температура - температура, которую ощущает одетый по сезону человек в тени. Характеристика душности погоды. При расчете учитывается влияние влажности воздуха и скорости ветра на теплоощущения человека.
Tes - Эффективная температура на солнце - температура, которую ощущает человек, с поправкой на солнечный нагрев. Характеристика знойности погоды. Зависит от высоты солнца над горизонтом, облачности и скорости ветра. Ночью, в пасмурную погоду, а также при ветре 12 м/с и более поправка равна нулю.
P - Атмосферное давление - приведенное к уровню моря атмосферное давление.
Po - Атмосферное давление - измеренное на уровне метеостанции атмосферное давление.
Tmin - Минимальная температура - минимум температуры воздуха на высоте 2 м над землей.
Tmax - Максимальная температура - максимум температуры воздуха на высоте 2 м над землей.
R - Количество осадков - Количество выпавших осадков за период времени, мм. При наведении курсора мыши на число - период времени, за который выпало указанное количество осадков.
R24 - Количество осадков - Количество выпавших осадков за 24 часа, мм.
S - Снежный покров - Высота снежного покрова, см. При наведении курсора мыши на число - состояние снежного покрова и степень покрытия местности в баллах.